Regional Weather Roundup
Issued by NWS

Home | Current Version | Previous Version | Graphics & Text | Print | Product List | Glossary On
Versions: 1 2 3 4 5 6 7 8 9 10 11 12 13 14 15 16 17 18 19 20 21 22 23 24 25 26 27 28 29 30 31 32 33 34 35 36 37 38 39 40 41 42 43 44 45 46 47 48 49 50
000
ASUS45 KBOI 241710
RWRID
WEATHER ROUNDUP FOR IDAHO
NATIONAL WEATHER SERVICE BOISE ID
1000 AM MST SAT JAN 24 2015

NOTE: "FAIR" INDICATES FEW OR NO CLOUDS BELOW 12000 FEET
WITH NO SIGNIFICANT WEATHER AND/OR OBSTRUCTIONS TO VISIBILITY

IDZ012-014-241800-
SOUTHWEST IDAHO


CITY           SKY/WX    TMP DP  RH WIND       PRES   REMARKS
BOISE          CLOUDY    32  28  85 CALM      30.52R
CALDWELL       CLOUDY    32  25  74 E8        30.54F WCI  25
MOUNTAIN HOME  CLOUDY    31  28  89 SE9       30.51S WCI  22
$$

IDZ016-017-241800-
SOUTHCENTRAL IDAHO


CITY           SKY/WX    TMP DP  RH WIND       PRES   REMARKS
BURLEY         CLOUDY    31  29  92 NE3       30.47R
JEROME         CLOUDY    27  25  92 NE13      30.47S FOG     WCI  16
TWIN FALLS     FOG       32  29  88 E3        30.47S VSB 1/4
$$

IDZ019>023-241800-
SOUTHEAST IDAHO


CITY           SKY/WX    TMP DP  RH WIND       PRES   REMARKS
IDAHO FALLS    FOG       24  22  91 N6        30.47S VSB 1   WCI  17
POCATELLO      CLOUDY    29  29 100 CALM      30.47S
REXBURG        CLOUDY    22  19  89 NE7       30.46S WCI  13
$$

IDZ006-010-011-018-031-032-241800-
CENTRAL IDAHO MOUNTAINS


CITY           SKY/WX    TMP DP  RH WIND       PRES   REMARKS
MCCALL         CLOUDY    30  29  96 CALM      30.41R FOG
HAILEY         MOSUNNY   21  19  93 NW5       30.44F WCI  15
STANLEY          N/A     25  17  72 E3        30.42S
SALMON         PTSUNNY   25  19  80 N5        30.41R WCI  19
CHALLIS        CLOUDY    28  22  78 N6        30.37R WCI  22
$$

IDZ002-004-006-007-026-241800-
NORTHERN IDAHO


CITY           SKY/WX    TMP DP  RH WIND       PRES   REMARKS
LEWISTON       PTSUNNY   51  40  65 SE7       30.33R
LOWELL           N/A     35  34  96 N5        30.42R WCI  31
COEUR D`ALENE  CLOUDY    39  37  93 CALM      30.30R VSB<1/4
MULLAN PASS    MIX PCPN  34  34 100 NW5       30.27S VSB 1/4 WCI  30
$$



USA.gov is the U.S. government's official web portal to all federal, state and local government web resources and services.